RH
26 26 22 16 12 10 9 7 6 6 5 4 4 4 4 4 4 3 3 2 2 2 2 3 3 4 4 5 6 6 5 4 4
29 24 19 15 12 10 8 8 7 6 6 5 5 5 5 5 4 4 4 3 3 3 3 3 4 5 6 6 5 5 4 5 4
31 25 21 16 12 10 9 9 8 7 7 6 6 6 6 5 5 4 5 5 5 4 5 5 6 7 7 5 5 5 6 5 4
32 26 22 15 12 11 10 10 9 8 8 7 7 7 6 6 6 5 5 6 5 6 6 6 6 6 5 5 5 6 5 6 6
32 26 20 15 12 12 11 10 10 9 9 8 8 8 7 7 6 6 5 5 4 5 5 5 6 6 6 6 6 6 6 5 5
32 27 21 16 14 12 12 11 10 10 10 10 9 9 9 7 7 6 5 5 5 5 6 8 8 8 9 8 8 8 8 8 9
36 27 22 18 15 14 12 12 11 11 11 10 10 10 10 9 8 7 6 8 9 9 9 9 10 12 11 10 10 11 10 11 12
31 27 24 20 18 16 14 13 12 12 12 12 12 11 10 10 10 8 7 9 9 10 11 12 11 12 14 14 13 12 13 14 16
25 24 23 21 20 17 15 14 13 13 13 13 13 13 12 12 12 11 8 8 10 10 11 12 12 14 15 15 14 14 15 17 19
23 22 21 19 18 17 16 15 15 14 14 14 15 15 14 13 13 13 11 8 8 11 11 11 13 13 14 15 15 15 17 20 20
16 17 17 17 17 18 18 18 18 17 16 16 16 16 15 15 14 14 13 8 6 9 11 12 12 12 13 13 13 13 16 18 21
17 17 18 20 21 22 22 22 22 20 19 18 18 17 17 16 16 15 15 12 7 6 10 11 13 13 13 13 13 15 19 21 23
21 23 24 25 26 26 26 25 24 24 22 20 19 18 18 18 17 17 17 15 10 8 8 11 14 15 14 14 17 22 26 27 27
23 26 28 28 28 27 27 26 25 24 24 22 20 20 19 19 19 19 18 16 12 11 14 14 14 15 17 21 26 28 28 28 29
22 24 28 29 28 28 27 26 26 24 24 25 23 21 20 20 20 21 19 16 14 14 16 17 19 22 26 28 29 29 30 31 30
24 24 26 30 30 29 28 28 25 23 23 24 24 22 20 20 21 21 19 18 18 19 23 28 30 31 33 33 34 34 34 34 33
25 25 28 30 31 30 29 28 26 24 25 25 24 23 22 21 21 21 19 19 20 23 27 31 33 36 36 36 35 33 32 32 34
30 30 31 31 31 31 30 29 26 24 25 26 25 23 22 22 22 21 20 21 24 30 34 37 38 39 39 39 37 36 37 39 42
34 34 33 32 32 32 30 28 26 26 27 27 26 24 23 24 24 23 23 25 31 35 40 42 44 43 44 45 45 46 45 45 46
38 37 34 33 32 31 30 28 28 29 29 28 25 24 24 24 23 24 29 32 39 42 48 52 53 53 51 51 51 50 50 50 49
Wind_Speed
13 15 17 17 17 16 15 15 14 16 17 18 18 20 20 20 20 19 18 18 17 17 16 16 15 14 14 14 14 14 14 15 17
14 15 16 16 16 14 13 13 14 15 17 17 18 19 19 18 17 16 16 17 16 17 17 16 16 15 15 14 15 16 17 17 18
14 15 16 16 13 10 11 12 14 16 17 18 18 18 17 17 17 16 16 17 16 16 17 17 17 15 14 15 16 17 18 19 19
13 14 15 14 10 10 11 13 16 18 18 18 18 18 17 17 18 17 16 16 16 16 16 15 15 15 17 17 18 19 21 21 20
12 14 14 12 9 10 11 14 18 20 21 20 19 17 17 17 18 18 17 17 16 15 15 16 16 18 19 19 19 21 22 22 22
11 13 13 12 10 10 11 14 17 20 22 22 20 19 18 18 19 20 20 18 18 16 17 16 17 17 16 17 18 20 22 23 23
12 12 13 13 12 12 12 14 16 17 20 22 23 22 20 20 20 21 21 19 18 17 17 17 16 16 17 18 18 20 21 23 24
12 12 13 14 13 13 14 15 16 16 18 19 22 22 21 21 21 22 22 21 21 19 18 19 19 19 19 20 21 22 23 25 25
12 12 13 13 13 14 15 16 16 16 18 19 22 23 22 21 22 23 23 24 23 23 22 21 22 22 22 23 25 26 26 27 28
12 12 13 13 14 15 16 17 19 19 20 20 23 24 24 24 23 25 26 26 28 27 26 26 26 26 26 27 28 29 30 30 31
12 13 13 14 14 15 17 19 21 22 23 23 25 26 26 26 26 27 28 29 30 31 31 31 31 30 30 31 32 33 33 33 33
13 14 15 15 16 17 19 21 23 24 26 27 29 29 29 28 29 29 30 32 33 34 34 35 35 35 35 34 35 36 35 35 35
16 16 16 17 19 21 22 23 25 28 29 30 32 32 32 32 32 32 33 34 35 36 36 36 37 37 36 36 37 37 37 38 38
19 19 19 21 22 24 26 27 29 31 32 33 35 35 35 35 34 35 36 37 38 37 37 36 36 37 38 39 39 40 41 41 42
23 23 23 24 26 28 30 32 33 33 34 36 37 38 38 38 38 38 38 38 39 38 38 38 39 40 42 43 43 44 45 45 46
26 26 27 27 29 31 33 34 35 36 38 39 40 41 41 41 41 41 41 40 40 40 41 41 43 44 46 47 48 49 49 50 51
30 31 30 31 32 34 36 37 38 40 41 42 43 43 43 44 44 44 44 43 43 44 45 46 48 50 51 52 53 54 56 57 57
32 33 34 35 35 37 39 41 42 44 45 45 45 46 46 47 48 48 48 47 48 49 50 52 53 55 56 58 60 61 62 63 63
37 37 38 38 39 40 42 45 47 48 48 48 48 49 49 49 49 50 51 52 53 54 56 58 60 61 62 64 65 67 67 67 66
41 41 41 42 43 45 46 48 50 50 51 51 52 52 53 53 53 53 55 57 59 61 63 64 66 68 68 68 68 67 67 67 68
Wind_Direction
325 326 328 328 331 336 337 335 337 336 335 341 355 1 360 358 358 355 351 344 340 336 332 334 337 334 332 334 336 340 348 347 348
331 332 331 331 336 342 345 349 344 342 345 352 2 3 360 354 352 349 343 338 337 335 333 335 335 334 335 340 344 345 344 344 343
328 330 328 332 339 351 356 1 358 354 354 358 1 359 354 349 346 342 338 335 336 334 335 335 333 335 340 341 342 343 342 339 337
323 326 328 334 342 358 3 10 5 359 359 359 359 355 349 344 339 337 332 330 330 332 334 336 336 333 334 337 334 336 338 335 334
316 321 330 334 342 354 0 4 2 356 358 360 358 350 343 337 333 328 322 320 321 323 322 325 325 327 329 331 333 336 335 331 329
311 318 327 336 337 343 347 354 355 353 354 356 357 349 340 332 328 320 316 315 314 315 315 318 320 323 323 323 330 331 330 328 327
303 311 325 332 336 334 336 345 347 347 347 349 350 348 337 331 322 313 310 308 310 314 313 312 316 317 319 324 330 330 327 326 327
295 303 317 326 328 329 328 332 335 337 339 341 342 341 335 327 320 315 304 301 301 303 307 307 309 313 317 318 318 321 322 324 327
296 302 309 315 317 320 321 321 323 325 326 325 331 332 330 324 319 313 305 293 291 294 295 297 300 304 307 309 312 315 318 322 326
298 305 308 311 315 316 317 316 317 318 319 315 320 321 324 321 316 311 307 299 288 285 286 288 291 295 299 302 305 309 313 317 321
310 307 307 309 314 318 314 315 317 313 312 309 310 312 313 314 312 309 305 299 293 286 281 280 283 287 289 294 299 303 307 311 314
303 304 307 311 313 314 313 312 314 311 308 305 307 307 307 307 306 305 303 299 294 289 287 281 279 282 285 288 293 297 302 305 308
301 303 306 308 311 312 314 311 311 311 305 302 302 304 305 304 303 301 299 298 296 293 288 287 283 282 284 287 291 295 299 301 303
301 302 303 305 309 309 311 311 310 311 304 300 300 302 302 301 301 300 298 297 296 294 290 288 285 285 287 289 292 295 296 298 300
301 302 302 303 306 308 309 311 309 305 301 299 298 299 299 300 300 298 298 296 294 292 289 287 286 287 288 290 291 292 293 294 294
298 298 300 301 302 303 305 305 306 302 299 298 298 299 299 298 298 297 295 293 292 289 288 288 287 286 286 287 288 289 290 291 291
298 298 298 298 300 302 303 302 302 299 296 296 297 298 297 296 295 294 292 291 290 289 288 288 288 289 289 289 290 290 290 289 288
293 295 296 297 298 299 299 300 299 296 295 295 296 295 295 295 295 295 294 292 292 291 291 290 289 289 289 289 289 289 288 287 287
294 295 296 297 297 297 298 298 296 295 295 295 295 294 293 293 293 292 291 291 292 291 291 291 290 289 289 288 288 288 287 287 287
291 293 294 295 296 297 296 295 294 295 295 295 294 292 292 292 291 290 291 292 292 292 292 292 291 290 289 288 287 287 285 285 285